This demonstration page uses our WeatherBlox Daily Observations layout. Learn more.

Left ArrowRight Arrow

38.80484, -77.04692

Hourly Observations for November 30, 2020

Temp ( °F °C ) Dew Point ( °F °C ) Humidity (%) Winds ( mph kmh ) Pressure ( in mb ) Visibility ( mi km ) Precip ( " mm )
12:52 am 00:52 Cloudy with Light Rain 53 11.7 46 7.8 77 77 ESE 6 9 29.96 1015 8 12.87472 0.01 0.254
1:52 am 01:52 Cloudy with Light Rain 52 11.1 47 8.3 83 83 NE 3 6 29.92 1013 10 16.0934 0.001 0.001
2:52 am 02:52 Cloudy with Light Rain 50 10 48 8.9 93 93 NNE 8 13 29.87 1011 5 8.0467 0.05 1.27
3:52 am 03:52 Cloudy with Light Rain 52 11.1 49 9.4 89 89 E 6 9 29.8 1009 6 9.65604 0.05 1.27
4:52 am 04:52 Cloudy with Light Rain 53 11.7 50 10 89 89 E 12 19 29.75 1007 7 11.26538 0.06 1.524
5:52 am 05:52 Cloudy with Rain 55 12.8 52 11.1 90 90 ENE 13 20 29.67 1005 5 8.0467 0.08 2.032
5:59 am 05:59 Cloudy with Rain 54 12.2 52 11.1 93 93 ENE 10 17 29.66 1004 4 6.43736 0.02 0.508
6:24 am 06:24 Cloudy with Rain 53 11.7 52 11.1 96 96 NNE 8 13 29.61 1003 4 6.43736 0.09 2.286
6:36 am 06:36 Cloudy with Heavy Rain 54 12.2 52 11.1 93 93 N 6 9 29.61 1003 2.5 4.02335 0.18 4.572
6:39 am 06:39 Cloudy with Heavy Rain 54 12.2 53 11.7 97 97 N 7 11 29.59 1002 3 4.82802 0.21 5.334
6:46 am 06:46 Cloudy with Heavy Rain 55 13 54 12 94 94 VRB 7 11 29.58 1002 2.5 4.02335 0.26 6.604
6:52 am 06:52 Cloudy with Heavy Rain 56 13.3 54 12.2 93 93 NE 6 9 29.58 1002 2 3.21868 0.31 7.874
6:54 am 06:54 Cloudy with Heavy Rain 56 13.3 54 12.2 93 93 N 6 9 29.59 1002 1.5 2.41401 0.02 0.508
6:57 am 06:57 Cloudy with Heavy Rain 56 13.3 54 12.2 93 93 NNW 6 9 29.58 1002 2 3.21868 0.1 2.54
7:06 am 07:06 Cloudy with Heavy Rain 56 13.3 54 12.2 93 93 N 10 17 29.55 1001 1.5 2.41401 0.23 5.842
7:33 am 07:33 Cloudy with Rain 56 13.3 55 12.8 97 97 E 6 9 29.54 1000 3 4.82802 0.42 10.668
7:48 am 07:48 Cloudy with Rain 57 14 55 13 94 94 ENE 3 6 29.54 1000 2 3.21868 0.51 12.954
7:52 am 07:52 Cloudy with Rain 57 13.9 55 12.8 93 93 Calm 29.54 1000 2 3.21868 0.51 12.954
7:55 am 07:55 Cloudy with Rain 57 13.9 55 12.8 93 93 Calm 29.54 1000 1.75 2.816345 0.01 0.254
8:02 am 08:02 Cloudy with Rain 57 13.9 55 12.8 93 93 Calm 29.53 1000 1.25 2.011675 0.04 1.016
8:20 am 08:20 Cloudy with Light Rain 57 13.9 56 13.3 96 96 NE 3 6 29.52 1000 3 4.82802 0.06 1.524
8:29 am 08:29 Cloudy with Light Rain 57 13.9 56 13.3 96 96 ENE 3 6 29.51 999 3 4.82802 0.07 1.778
8:38 am 08:38 Cloudy with Light Rain 58 14.4 57 13.9 97 97 E 5 7 29.5 999 7 11.26538 0.08 2.032
8:52 am 08:52 Cloudy with Light Rain 59 15 58 14.4 96 96 Calm 29.49 999 10 16.0934 0.08 2.032
9:52 am 09:52 Cloudy with Light Rain 61 16.1 59 15 93 93 S 10 17 29.47 998 3 4.82802 0.001 0.001
10:15 am 10:15 Cloudy with Rain 62 16.7 60 15.6 93 93 S 8 13 29.45 997 1.75 2.816345 0.08 2.032
10:28 am 10:28 Cloudy with Heavy Rain 60 15.6 59 15 96 96 S 12 19 29.45 997 0.75 1.207005 0.19 4.826
10:44 am 10:44 Cloudy with Heavy Rain 64 17.8 62 16.7 93 93 SSW 20 31 29.43 997 0.5 0.80467 0.79 20.066
10:52 am 10:52 Cloudy with Rain 64 17.8 62 16.7 93 93 WSW 13 20 29.44 997 0.5 0.80467 0.83 21.082
10:59 am 10:59 Cloudy with Light Rain 64 17.8 62 16.7 93 93 W 16 26 29.44 997 2 3.21868 0.001 0.001
11:02 am 11:02 Cloudy with Heavy Rain 63 17.2 61 16.1 93 93 W 15 24 29.44 997 0.75 1.207005 0.08 2.032
11:15 am 11:15 Cloudy with Light Rain 63 17.2 60 15.6 90 90 SW 12 19 29.43 997 2 3.21868 0.25 6.35
11:24 am 11:24 Cloudy with Light Rain 63 17.2 60 15.6 90 90 SW 10 17 29.41 996 10 16.0934 0.25 6.35
11:52 am 11:52 Cloudy with Light Rain 62 16.7 60 15.6 93 93 S 9 15 29.4 996 3 4.82802 0.3 7.62
12:52 pm 12:52 Cloudy 62 16.7 60 15.6 93 93 SSE 7 11 29.35 994 10 16.0934 0.02 0.508
1:12 pm 13:12 Cloudy with Light Rain 63 17.2 60 15.6 90 90 VRB 5 7 29.34 994 1.75 2.816345 0.001 0.001
1:22 pm 13:22 Cloudy with Light Rain 63 17.2 61 16.1 93 93 undefined N/A 29.34 994 3 4.82802 0.08 2.032
1:35 pm 13:35 Cloudy with Light Rain 64 17.8 60 15.6 87 87 SSW 10 17 29.33 993 7 11.26538 0.09 2.286
1:38 pm 13:38 Cloudy with Light Thunderstorms 64 17.8 60 15.6 87 87 SSW 12 19 29.33 993 8 12.87472 0.09 2.286
1:52 pm 13:52 Cloudy with Thunderstorms 64 17.8 59 15 84 84 SSW 13 20 29.34 994 10 16.0934 0.09 2.286
1:58 pm 13:58 Cloudy 64 17.8 60 15.6 87 87 SSW 12 19 29.34 994 10 16.0934 0 0
2:52 pm 14:52 Cloudy 61 16.1 58 14.4 90 90 S 10 17 29.34 994 10 16.0934 0 0
3:52 pm 15:52 Cloudy 64 17.8 58 14.4 81 81 SW 9 15 29.34 994 10 16.0934 0 0
4:47 pm 16:47 Cloudy 63 17 57 14 83 83 SW 13 20 29.37 995 10 16.0934 0 0
4:52 pm 16:52 Mostly Cloudy 62 16.7 57 13.9 84 84 SW 12 19 29.37 995 10 16.0934 0 0
5:43 pm 17:43 Cloudy 61 16.1 56 13.3 84 84 VRB 7 11 29.4 996 10 16.0934 0 0
5:52 pm 17:52 Cloudy 61 16.1 56 13.3 84 84 W 9 15 29.41 996 10 16.0934 0 0
6:52 pm 18:52 Cloudy 58 14.4 52 11.1 81 81 W 6 9 29.44 997 10 16.0934 0 0
7:15 pm 19:15 Cloudy 58 14.4 53 11.7 84 84 NNW 7 11 29.45 997 10 16.0934 0 0
7:32 pm 19:32 Cloudy 58 14.4 51 10.6 78 78 NNW 14 22 29.46 998 10 16.0934 0 0
7:52 pm 19:52 Cloudy 57 13.9 49 9.4 74 74 NW 8 13 29.48 998 10 16.0934 0 0
8:52 pm 20:52 Cloudy 53 11.7 41 5 64 64 NNW 10 17 29.49 999 10 16.0934 0 0
9:52 pm 21:52 Cloudy 52 11.1 39 3.9 61 61 NNW 7 11 29.52 1000 10 16.0934 0 0
10:52 pm 22:52 Mostly Cloudy 50 10 38 3.3 63 63 NNW 9 15 29.53 1000 10 16.0934 0 0
11:52 pm 23:52 Mostly Cloudy 49 9.4 36 2.2 61 61 NNW 8 13 29.54 1000 10 16.0934 0 0

Powered by AerisWeather